Time,TemperatureF,DewpointF,PressureIn,WindDirection,WindDirectionDegrees,WindSpeedMPH,WindSpeedGustMPH,Humidity,HourlyPrecipIn,Conditions,Clouds,dailyrainin,SoftwareType,DateUTC
2013-02-14 00:00:00,62.1,60.1,29.96,NE,36,0.0,1.0,93,0.00,,,0.98,meteohub,2013-02-14 05:00:00,
2013-02-14 00:01:00,62.1,60.1,29.96,NE,36,0.0,1.0,93,0.00,,,0.98,meteohub,2013-02-14 05:01:00,
2013-02-14 00:03:00,61.9,59.9,29.96,NE,36,0.0,1.0,93,0.00,,,0.98,meteohub,2013-02-14 05:03:00,
2013-02-14 00:08:00,61.9,59.9,29.96,NE,36,0.0,1.0,93,0.00,,,0.00,meteohub,2013-02-14 05:08:00,
2013-02-14 00:13:00,61.7,59.7,29.96,NE,36,0.0,1.0,93,0.00,,,0.00,meteohub,2013-02-14 05:13:00,
2013-02-14 00:18:00,61.7,59.7,29.96,NE,36,0.0,0.0,93,0.00,,,0.00,meteohub,2013-02-14 05:18:00,
2013-02-14 00:23:00,61.7,59.7,29.95,NE,36,1.0,0.0,93,0.00,,,0.00,meteohub,2013-02-14 05:23:00,
2013-02-14 00:28:00,61.7,59.7,29.94,NE,36,0.0,2.0,93,0.00,,,0.00,meteohub,2013-02-14 05:28:00,
2013-02-14 00:33:00,61.7,59.7,29.94,NE,36,0.0,2.0,93,0.00,,,0.00,meteohub,2013-02-14 05:33:00,
2013-02-14 00:38:00,61.5,59.2,29.94,NE,36,0.0,2.0,92,0.00,,,0.00,meteohub,2013-02-14 05:38:00,
2013-02-14 00:43:00,61.5,59.2,29.94,NE,36,0.0,1.0,92,0.00,,,0.00,meteohub,2013-02-14 05:43:00,
2013-02-14 00:49:00,61.5,59.2,29.93,NE,36,0.0,1.0,92,0.00,,,0.00,meteohub,2013-02-14 05:49:00,
2013-02-14 00:54:00,61.5,59.2,29.94,NE,36,0.0,2.0,92,0.00,,,0.00,meteohub,2013-02-14 05:54:00,
2013-02-14 00:59:00,61.5,58.8,29.94,NE,36,0.0,2.0,91,0.00,,,0.00,meteohub,2013-02-14 05:59:00,
2013-02-14 01:04:00,61.5,59.2,29.94,NE,36,0.0,2.0,92,0.00,,,0.00,meteohub,2013-02-14 06:04:00,
2013-02-14 01:09:00,61.5,59.2,29.94,NE,36,0.0,1.0,92,0.00,,,0.00,meteohub,2013-02-14 06:09:00,
2013-02-14 01:14:00,61.3,59.0,29.94,NE,36,0.0,1.0,92,0.00,,,0.00,meteohub,2013-02-14 06:14:00,
2013-02-14 01:19:00,61.3,58.6,29.95,NE,36,0.0,1.0,91,0.00,,,0.00,meteohub,2013-02-14 06:19:00,
2013-02-14 01:24:00,61.3,58.6,29.95,NE,36,0.0,1.0,91,0.00,,,0.00,meteohub,2013-02-14 06:24:00,
2013-02-14 01:29:00,61.5,59.2,29.95,NE,36,0.0,2.0,92,0.00,,,0.00,meteohub,2013-02-14 06:29:00,
2013-02-14 01:34:00,61.5,59.2,29.95,NE,36,0.0,2.0,92,0.00,,,0.00,meteohub,2013-02-14 06:34:00,
2013-02-14 01:39:00,61.5,59.2,29.95,NE,36,0.0,1.0,92,0.00,,,0.00,meteohub,2013-02-14 06:39:00,
2013-02-14 01:44:00,61.5,59.2,29.94,NE,36,0.0,1.0,92,0.00,,,0.00,meteohub,2013-02-14 06:44:00,
2013-02-14 01:49:00,61.5,59.5,29.94,NE,36,0.0,1.0,93,0.00,,,0.00,meteohub,2013-02-14 06:49:00,
2013-02-14 01:54:00,61.3,59.4,29.94,NE,36,0.0,2.0,93,0.00,,,0.00,meteohub,2013-02-14 06:54:00,
2013-02-14 01:59:00,61.3,59.4,29.93,NE,36,0.0,2.0,93,0.01,,,0.01,meteohub,2013-02-14 06:59:00,
2013-02-14 02:04:00,61.2,59.2,29.92,NE,36,0.0,2.0,93,0.01,,,0.01,meteohub,2013-02-14 07:04:00,
2013-02-14 02:09:00,61.0,59.0,29.92,NE,36,3.0,3.0,93,0.03,,,0.03,meteohub,2013-02-14 07:09:00,
2013-02-14 02:15:00,60.8,59.0,29.92,NE,36,0.0,3.0,94,0.03,,,0.03,meteohub,2013-02-14 07:15:00,
2013-02-14 02:20:00,60.8,59.0,29.91,NE,36,1.0,3.0,94,0.03,,,0.03,meteohub,2013-02-14 07:20:00,
2013-02-14 02:25:00,60.6,58.8,29.91,NE,36,0.0,3.0,94,0.03,,,0.03,meteohub,2013-02-14 07:25:00,
2013-02-14 02:30:00,60.6,58.8,29.91,NE,36,0.0,3.0,94,0.03,,,0.03,meteohub,2013-02-14 07:30:00,
2013-02-14 02:35:00,60.6,58.8,29.91,NE,36,0.0,3.0,94,0.03,,,0.03,meteohub,2013-02-14 07:35:00,
2013-02-14 02:40:00,60.6,58.8,29.91,NE,36,0.0,2.0,94,0.03,,,0.03,meteohub,2013-02-14 07:40:00,
2013-02-14 02:45:00,60.6,58.8,29.92,NE,36,0.0,0.0,94,0.03,,,0.03,meteohub,2013-02-14 07:45:00,
2013-02-14 02:50:00,60.6,58.8,29.92,NE,36,0.0,0.0,94,0.02,,,0.03,meteohub,2013-02-14 07:50:00,
2013-02-14 02:55:00,60.8,59.4,29.90,NE,36,1.0,3.0,95,0.02,,,0.03,meteohub,2013-02-14 07:55:00,
2013-02-14 03:00:00,60.8,59.0,29.90,NE,36,1.0,3.0,94,0.01,,,0.03,meteohub,2013-02-14 08:00:00,
2013-02-14 03:05:00,60.6,58.8,29.91,NE,36,0.0,3.0,94,0.00,,,0.03,meteohub,2013-02-14 08:05:00,
2013-02-14 03:10:00,60.6,58.8,29.91,NE,36,0.0,2.0,94,0.00,,,0.03,meteohub,2013-02-14 08:10:00,
2013-02-14 03:15:00,60.4,58.6,29.91,NE,36,0.0,2.0,94,0.00,,,0.03,meteohub,2013-02-14 08:15:00,
2013-02-14 03:20:00,60.6,58.8,29.91,NE,36,0.0,1.0,94,0.00,,,0.03,meteohub,2013-02-14 08:20:00,
2013-02-14 03:25:00,60.6,58.8,29.92,NE,36,0.0,1.0,94,0.00,,,0.03,meteohub,2013-02-14 08:25:00,
2013-02-14 03:30:00,60.6,58.8,29.91,NE,36,0.0,2.0,94,0.00,,,0.03,meteohub,2013-02-14 08:30:00,
2013-02-14 03:35:00,60.6,58.8,29.91,NE,36,0.0,2.0,94,0.00,,,0.03,meteohub,2013-02-14 08:35:00,
2013-02-14 03:41:00,60.4,58.6,29.91,NE,36,0.0,1.0,94,0.00,,,0.03,meteohub,2013-02-14 08:41:00,
2013-02-14 03:46:00,60.6,58.8,29.91,NE,36,0.0,0.0,94,0.00,,,0.03,meteohub,2013-02-14 08:46:00,
2013-02-14 03:51:00,60.8,59.0,29.91,NE,36,1.0,0.0,94,0.00,,,0.03,meteohub,2013-02-14 08:51:00,
2013-02-14 03:56:00,60.8,59.0,29.91,NE,36,0.0,2.0,94,0.00,,,0.03,meteohub,2013-02-14 08:56:00,
2013-02-14 04:01:00,60.8,59.0,29.90,NE,36,0.0,2.0,94,0.00,,,0.03,meteohub,2013-02-14 09:01:00,
2013-02-14 04:06:00,60.6,58.8,29.90,NE,36,0.0,2.0,94,0.00,,,0.03,meteohub,2013-02-14 09:06:00,
2013-02-14 04:11:00,60.6,58.8,29.91,NE,36,0.0,1.0,94,0.00,,,0.03,meteohub,2013-02-14 09:11:00,
2013-02-14 04:16:00,60.8,59.0,29.91,NE,36,0.0,0.0,94,0.00,,,0.03,meteohub,2013-02-14 09:16:00,
2013-02-14 04:21:00,60.8,59.0,29.91,NE,36,0.0,0.0,94,0.00,,,0.03,meteohub,2013-02-14 09:21:00,
2013-02-14 04:26:00,60.8,59.0,29.91,NE,36,0.0,0.0,94,0.00,,,0.03,meteohub,2013-02-14 09:26:00,
2013-02-14 04:31:00,61.0,59.2,29.91,NE,36,0.0,0.0,94,0.00,,,0.03,meteohub,2013-02-14 09:31:00,
2013-02-14 04:36:00,61.0,59.5,29.91,NE,36,0.0,0.0,95,0.00,,,0.03,meteohub,2013-02-14 09:36:00,
2013-02-14 04:41:00,61.0,59.2,29.91,NE,36,0.0,0.0,94,0.00,,,0.03,meteohub,2013-02-14 09:41:00,
2013-02-14 04:46:00,61.0,59.5,29.91,NE,36,0.0,0.0,95,0.00,,,0.03,meteohub,2013-02-14 09:46:00,
2013-02-14 04:51:00,61.2,59.7,29.91,NE,36,0.0,0.0,95,0.00,,,0.03,meteohub,2013-02-14 09:51:00,
2013-02-14 04:56:00,61.2,59.7,29.91,NE,36,0.0,0.0,95,0.00,,,0.03,meteohub,2013-02-14 09:56:00,
2013-02-14 05:01:00,61.2,59.7,29.91,NE,36,0.0,0.0,95,0.00,,,0.03,meteohub,2013-02-14 10:01:00,
2013-02-14 05:07:00,61.2,59.7,29.91,NE,36,0.0,0.0,95,0.00,,,0.03,meteohub,2013-02-14 10:07:00,
2013-02-14 05:12:00,61.2,59.7,29.91,NE,36,0.0,0.0,95,0.00,,,0.03,meteohub,2013-02-14 10:12:00,
2013-02-14 05:17:00,61.2,59.7,29.91,NE,36,0.0,1.0,95,0.00,,,0.03,meteohub,2013-02-14 10:17:00,
2013-02-14 05:22:00,61.2,59.7,29.91,NE,36,0.0,1.0,95,0.00,,,0.03,meteohub,2013-02-14 10:22:00,
2013-02-14 05:27:00,61.2,59.7,29.91,NE,36,0.0,1.0,95,0.00,,,0.03,meteohub,2013-02-14 10:27:00,
2013-02-14 05:32:00,61.2,59.7,29.91,NE,36,0.0,1.0,95,0.00,,,0.03,meteohub,2013-02-14 10:32:00,
2013-02-14 05:37:00,61.3,59.9,29.91,NE,36,0.0,0.0,95,0.00,,,0.03,meteohub,2013-02-14 10:37:00,
2013-02-14 05:42:00,61.3,59.9,29.91,NE,36,0.0,0.0,95,0.00,,,0.03,meteohub,2013-02-14 10:42:00,
2013-02-14 05:47:00,61.3,59.9,29.91,NE,36,0.0,0.0,95,0.00,,,0.03,meteohub,2013-02-14 10:47:00,
2013-02-14 05:52:00,61.3,59.9,29.91,NE,36,0.0,0.0,95,0.00,,,0.03,meteohub,2013-02-14 10:52:00,
2013-02-14 05:57:00,61.3,59.9,29.91,NE,36,0.0,0.0,95,0.00,,,0.03,meteohub,2013-02-14 10:57:00,
2013-02-14 06:02:00,61.3,59.9,29.91,NE,36,0.0,0.0,95,0.00,,,0.03,meteohub,2013-02-14 11:02:00,
2013-02-14 06:07:00,61.3,59.9,29.91,NE,36,0.0,0.0,95,0.00,,,0.03,meteohub,2013-02-14 11:07:00,
2013-02-14 06:12:00,61.3,59.9,29.92,NE,36,0.0,0.0,95,0.00,,,0.03,meteohub,2013-02-14 11:12:00,
2013-02-14 06:17:00,61.3,59.9,29.92,NE,36,0.0,0.0,95,0.00,,,0.03,meteohub,2013-02-14 11:17:00,
2013-02-14 06:22:00,61.3,59.9,29.92,NE,36,0.0,1.0,95,0.00,,,0.03,meteohub,2013-02-14 11:22:00,
2013-02-14 06:27:00,61.3,59.9,29.92,NE,36,0.0,1.0,95,0.00,,,0.03,meteohub,2013-02-14 11:27:00,
2013-02-14 06:32:00,61.2,59.7,29.92,NE,36,0.0,0.0,95,0.00,,,0.03,meteohub,2013-02-14 11:32:00,
2013-02-14 06:37:00,61.0,59.5,29.93,NE,36,0.0,0.0,95,0.00,,,0.03,meteohub,2013-02-14 11:37:00,
2013-02-14 06:42:00,61.0,59.5,29.93,NE,36,0.0,0.0,95,0.00,,,0.03,meteohub,2013-02-14 11:42:00,
2013-02-14 06:47:00,61.0,59.5,29.93,NE,36,0.0,1.0,95,0.00,,,0.03,meteohub,2013-02-14 11:47:00,
2013-02-14 06:52:00,60.8,59.4,29.94,NE,36,0.0,1.0,95,0.00,,,0.03,meteohub,2013-02-14 11:52:00,
2013-02-14 06:57:00,60.8,59.4,29.94,NE,36,0.0,1.0,95,0.00,,,0.03,meteohub,2013-02-14 11:57:00,
2013-02-14 07:02:00,60.8,59.4,29.94,NE,36,0.0,1.0,95,0.00,,,0.03,meteohub,2013-02-14 12:02:00,
2013-02-14 07:07:00,60.8,59.4,29.94,NE,36,0.0,1.0,95,0.00,,,0.03,meteohub,2013-02-14 12:07:00,
2013-02-14 07:12:00,60.6,59.2,29.95,NE,36,0.0,1.0,95,0.00,,,0.03,meteohub,2013-02-14 12:12:00,
2013-02-14 07:17:00,60.6,59.2,29.95,NE,36,0.0,0.0,95,0.00,,,0.03,meteohub,2013-02-14 12:17:00,
2013-02-14 07:22:00,60.6,59.2,29.95,NE,36,0.0,1.0,95,0.00,,,0.03,meteohub,2013-02-14 12:22:00,
2013-02-14 07:27:00,60.6,59.2,29.96,NE,36,0.0,1.0,95,0.00,,,0.03,meteohub,2013-02-14 12:27:00,
2013-02-14 07:32:00,60.6,59.2,29.96,NE,36,0.0,1.0,95,0.00,,,0.03,meteohub,2013-02-14 12:32:00,
2013-02-14 07:37:00,60.8,59.4,29.96,NE,36,0.0,0.0,95,0.00,,,0.03,meteohub,2013-02-14 12:37:00,
2013-02-14 07:42:00,61.0,59.5,29.95,NE,36,0.0,0.0,95,0.00,,,0.03,meteohub,2013-02-14 12:42:00,
2013-02-14 07:47:00,61.2,59.7,29.95,NE,36,0.0,0.0,95,0.00,,,0.03,meteohub,2013-02-14 12:47:00,
2013-02-14 07:52:00,61.2,59.7,29.96,NE,36,0.0,0.0,95,0.00,,,0.03,meteohub,2013-02-14 12:52:00,
2013-02-14 07:57:00,61.3,59.9,29.96,NE,36,0.0,1.0,95,0.00,,,0.03,meteohub,2013-02-14 12:57:00,
2013-02-14 08:02:00,61.3,59.9,29.96,NE,36,0.0,1.0,95,0.00,,,0.03,meteohub,2013-02-14 13:02:00,
2013-02-14 08:07:00,61.5,60.1,29.96,NE,36,0.0,1.0,95,0.00,,,0.03,meteohub,2013-02-14 13:07:00,
2013-02-14 08:12:00,61.9,60.4,29.96,NE,36,0.0,1.0,95,0.00,,,0.03,meteohub,2013-02-14 13:12:00,
2013-02-14 08:17:00,61.9,60.4,29.96,NE,36,0.0,1.0,95,0.00,,,0.03,meteohub,2013-02-14 13:17:00,
2013-02-14 08:22:00,62.1,60.6,29.96,NE,36,1.0,1.0,95,0.00,,,0.03,meteohub,2013-02-14 13:22:00,
2013-02-14 08:27:00,62.2,60.4,29.96,NE,36,0.0,1.0,94,0.00,,,0.03,meteohub,2013-02-14 13:27:00,
2013-02-14 08:32:00,62.4,60.6,29.96,NE,36,0.0,1.0,94,0.00,,,0.03,meteohub,2013-02-14 13:32:00,
2013-02-14 08:37:00,62.8,61.0,29.97,NE,36,0.0,1.0,94,0.00,,,0.03,meteohub,2013-02-14 13:37:00,
2013-02-14 08:42:00,62.8,60.8,29.97,NE,36,0.0,2.0,93,0.00,,,0.03,meteohub,2013-02-14 13:42:00,
2013-02-14 08:47:00,63.0,61.0,29.97,NE,36,0.0,2.0,93,0.00,,,0.03,meteohub,2013-02-14 13:47:00,
2013-02-14 08:52:00,63.1,60.8,29.98,NE,36,0.0,2.0,92,0.00,,,0.03,meteohub,2013-02-14 13:52:00,
2013-02-14 08:57:00,63.1,60.4,29.97,NE,36,1.0,2.0,91,0.00,,,0.03,meteohub,2013-02-14 13:57:00,
2013-02-14 09:02:00,63.3,60.3,29.98,NE,36,2.0,2.0,90,0.00,,,0.03,meteohub,2013-02-14 14:02:00,
2013-02-14 09:07:00,63.7,60.4,29.99,NE,36,1.0,4.0,89,0.00,,,0.03,meteohub,2013-02-14 14:07:00,
2013-02-14 09:12:00,63.9,60.3,29.99,NE,36,2.0,4.0,88,0.00,,,0.03,meteohub,2013-02-14 14:12:00,
2013-02-14 09:17:00,64.2,60.3,29.99,NNW,327,4.0,6.0,87,0.00,,,0.03,meteohub,2013-02-14 14:17:00,
2013-02-14 09:22:00,64.4,59.7,29.99,NNW,327,1.0,6.0,85,0.00,,,0.03,meteohub,2013-02-14 14:22:00,
2013-02-14 09:27:00,64.4,59.7,29.99,NNW,327,0.0,6.0,85,0.00,,,0.03,meteohub,2013-02-14 14:27:00,
2013-02-14 09:32:00,64.6,59.9,29.99,NE,47,1.0,5.0,85,0.00,,,0.03,meteohub,2013-02-14 14:32:00,
2013-02-14 09:37:00,64.6,59.9,29.99,NW,317,7.0,7.0,85,0.00,,,0.03,meteohub,2013-02-14 14:37:00,
2013-02-14 09:42:00,64.6,59.7,29.99,North,355,4.0,9.0,84,0.00,,,0.03,meteohub,2013-02-14 14:42:00,
2013-02-14 09:47:00,64.6,59.9,30.00,NNW,348,1.0,9.0,85,0.00,,,0.03,meteohub,2013-02-14 14:47:00,
2013-02-14 09:52:00,64.8,60.1,30.01,NW,319,3.0,9.0,85,0.00,,,0.03,meteohub,2013-02-14 14:52:00,
2013-02-14 09:57:00,64.6,59.9,30.02,NW,317,3.0,7.0,85,0.00,,,0.03,meteohub,2013-02-14 14:57:00,
2013-02-14 10:02:00,64.4,60.1,30.02,NNW,331,1.0,7.0,86,0.00,,,0.03,meteohub,2013-02-14 15:02:00,
2013-02-14 10:07:00,64.4,60.1,30.02,NNW,329,3.0,7.0,86,0.00,,,0.03,meteohub,2013-02-14 15:07:00,
2013-02-14 10:12:00,64.2,59.9,30.01,NW,326,4.0,6.0,86,0.00,,,0.03,meteohub,2013-02-14 15:12:00,
2013-02-14 10:17:00,64.0,59.4,30.02,NW,324,2.0,9.0,85,0.00,,,0.03,meteohub,2013-02-14 15:17:00,
2013-02-14 10:22:00,64.0,59.2,30.01,NW,322,4.0,9.0,84,0.00,,,0.03,meteohub,2013-02-14 15:22:00,
2013-02-14 10:27:00,63.9,59.2,30.02,NW,304,7.0,9.0,85,0.00,,,0.03,meteohub,2013-02-14 15:27:00,
2013-02-14 10:32:00,63.5,59.2,30.02,NW,325,4.0,9.0,86,0.00,,,0.03,meteohub,2013-02-14 15:32:00,
2013-02-14 10:37:00,63.1,58.8,30.02,NNW,331,3.0,9.0,86,0.00,,,0.03,meteohub,2013-02-14 15:37:00,
2013-02-14 10:42:00,63.0,59.0,30.02,WNW,300,5.0,9.0,87,0.00,,,0.03,meteohub,2013-02-14 15:42:00,
2013-02-14 10:48:00,63.0,59.4,30.02,NNW,327,4.0,10.0,88,0.00,,,0.03,meteohub,2013-02-14 15:48:00,
2013-02-14 10:53:00,62.8,59.2,30.02,NW,315,4.0,10.0,88,0.01,,,0.04,meteohub,2013-02-14 15:53:00,
2013-02-14 10:58:00,62.6,59.0,30.01,NNW,327,2.0,9.0,88,0.01,,,0.04,meteohub,2013-02-14 15:58:00,
2013-02-14 11:03:00,62.4,58.8,30.01,NNW,330,5.0,13.0,88,0.01,,,0.04,meteohub,2013-02-14 16:03:00,
2013-02-14 11:08:00,62.2,59.0,30.02,NNW,344,7.0,13.0,89,0.02,,,0.05,meteohub,2013-02-14 16:08:00,
2013-02-14 11:13:00,62.2,59.0,30.02,NW,323,3.0,11.0,89,0.02,,,0.05,meteohub,2013-02-14 16:13:00,
2013-02-14 11:18:00,62.2,59.0,30.02,NW,314,2.0,13.0,89,0.02,,,0.05,meteohub,2013-02-14 16:18:00,
2013-02-14 11:23:00,62.2,59.0,30.03,WNW,298,3.0,13.0,89,0.02,,,0.05,meteohub,2013-02-14 16:23:00,
2013-02-14 11:28:00,62.2,59.0,30.02,NNW,331,8.0,13.0,89,0.02,,,0.05,meteohub,2013-02-14 16:28:00,
2013-02-14 11:33:00,62.1,59.2,30.01,NW,325,3.0,10.0,90,0.02,,,0.05,meteohub,2013-02-14 16:33:00,
2013-02-14 11:38:00,62.1,58.8,30.02,NW,315,2.0,10.0,89,0.02,,,0.05,meteohub,2013-02-14 16:38:00,
2013-02-14 11:43:00,61.9,59.0,30.02,NW,320,2.0,10.0,90,0.02,,,0.05,meteohub,2013-02-14 16:43:00,
2013-02-14 11:48:00,61.7,58.8,30.02,NW,319,5.0,10.0,90,0.02,,,0.05,meteohub,2013-02-14 16:48:00,
2013-02-14 11:53:00,61.3,58.5,30.02,NNW,336,6.0,9.0,90,0.02,,,0.05,meteohub,2013-02-14 16:53:00,
2013-02-14 11:58:00,61.0,58.1,30.01,NNW,332,4.0,9.0,90,0.03,,,0.07,meteohub,2013-02-14 16:58:00,
2013-02-14 12:03:00,60.6,57.7,30.01,NW,325,4.0,9.0,90,0.03,,,0.07,meteohub,2013-02-14 17:03:00,
2013-02-14 12:09:00,60.4,57.6,30.01,NNW,346,0.0,9.0,90,0.02,,,0.07,meteohub,2013-02-14 17:09:00,
2013-02-14 12:14:00,60.4,57.7,30.01,NNW,342,2.0,10.0,91,0.02,,,0.07,meteohub,2013-02-14 17:14:00,
2013-02-14 12:19:00,60.4,57.7,30.00,NNW,342,0.0,10.0,91,0.02,,,0.07,meteohub,2013-02-14 17:19:00,
2013-02-14 12:24:00,60.4,57.7,30.00,NNW,342,1.0,10.0,91,0.02,,,0.07,meteohub,2013-02-14 17:24:00,
2013-02-14 12:29:00,60.4,58.1,30.00,NNW,342,1.0,4.0,92,0.02,,,0.07,meteohub,2013-02-14 17:29:00,
2013-02-14 12:34:00,60.4,58.1,30.00,NNW,342,2.0,4.0,92,0.03,,,0.08,meteohub,2013-02-14 17:34:00,
2013-02-14 12:39:00,60.4,58.5,30.00,NNW,342,1.0,4.0,93,0.03,,,0.08,meteohub,2013-02-14 17:39:00,
2013-02-14 12:44:00,60.6,58.6,29.99,NNW,342,2.0,3.0,93,0.04,,,0.09,meteohub,2013-02-14 17:44:00,
2013-02-14 12:49:00,60.6,58.8,29.98,NNW,342,3.0,3.0,94,0.04,,,0.09,meteohub,2013-02-14 17:49:00,
2013-02-14 12:54:00,60.6,58.8,29.95,NNW,342,1.0,3.0,94,0.04,,,0.10,meteohub,2013-02-14 17:54:00,
2013-02-14 12:59:00,60.8,59.0,29.95,ENE,78,1.0,5.0,94,0.03,,,0.10,meteohub,2013-02-14 17:59:00,
2013-02-14 13:04:00,60.6,58.8,29.96,ENE,67,2.0,5.0,94,0.03,,,0.10,meteohub,2013-02-14 18:04:00,
2013-02-14 13:09:00,60.8,59.0,29.96,ENE,67,1.0,6.0,94,0.03,,,0.10,meteohub,2013-02-14 18:09:00,
2013-02-14 13:15:00,60.8,59.0,29.96,ENE,67,3.0,6.0,94,0.03,,,0.10,meteohub,2013-02-14 18:15:00,
2013-02-14 13:20:00,61.0,59.2,29.96,ENE,67,2.0,6.0,94,0.03,,,0.10,meteohub,2013-02-14 18:20:00,
2013-02-14 13:25:00,61.0,59.2,29.95,ENE,67,2.0,4.0,94,0.03,,,0.10,meteohub,2013-02-14 18:25:00,
2013-02-14 13:30:00,61.2,59.4,29.95,ENE,67,1.0,4.0,94,0.02,,,0.10,meteohub,2013-02-14 18:30:00,
2013-02-14 13:35:00,61.2,59.4,29.95,ENE,67,2.0,4.0,94,0.02,,,0.10,meteohub,2013-02-14 18:35:00,
2013-02-14 13:40:00,61.2,59.4,29.94,ENE,67,1.0,3.0,94,0.01,,,0.10,meteohub,2013-02-14 18:40:00,
2013-02-14 13:45:00,61.2,59.4,29.95,ENE,67,1.0,3.0,94,0.00,,,0.10,meteohub,2013-02-14 18:45:00,
2013-02-14 13:50:00,61.3,59.5,29.96,ENE,67,1.0,2.0,94,0.00,,,0.10,meteohub,2013-02-14 18:50:00,
2013-02-14 13:55:00,61.3,59.5,29.96,ENE,67,0.0,2.0,94,0.00,,,0.10,meteohub,2013-02-14 18:55:00,
2013-02-14 14:00:00,61.5,59.7,29.95,ENE,67,1.0,2.0,94,0.00,,,0.10,meteohub,2013-02-14 19:00:00,
2013-02-14 14:05:00,61.3,59.5,29.94,ENE,67,1.0,2.0,94,0.01,,,0.11,meteohub,2013-02-14 19:05:00,
2013-02-14 14:11:00,61.5,59.7,29.94,ENE,67,1.0,2.0,94,0.01,,,0.11,meteohub,2013-02-14 19:11:00,
2013-02-14 14:16:00,61.5,59.7,29.95,ENE,67,0.0,2.0,94,0.01,,,0.11,meteohub,2013-02-14 19:16:00,
2013-02-14 14:21:00,61.5,59.7,29.94,ENE,67,0.0,2.0,94,0.01,,,0.11,meteohub,2013-02-14 19:21:00,
2013-02-14 14:26:00,61.7,59.9,29.95,ENE,67,1.0,2.0,94,0.02,,,0.12,meteohub,2013-02-14 19:26:00,
2013-02-14 14:31:00,61.5,59.7,29.94,ENE,67,0.0,2.0,94,0.02,,,0.12,meteohub,2013-02-14 19:31:00,
2013-02-14 14:36:00,61.7,59.9,29.94,ENE,67,0.0,2.0,94,0.02,,,0.12,meteohub,2013-02-14 19:36:00,
2013-02-14 14:41:00,61.5,59.7,29.94,ENE,67,0.0,2.0,94,0.02,,,0.12,meteohub,2013-02-14 19:41:00,
2013-02-14 14:46:00,61.5,59.7,29.94,ENE,67,0.0,1.0,94,0.02,,,0.12,meteohub,2013-02-14 19:46:00,
2013-02-14 14:51:00,61.3,59.5,29.94,ENE,67,0.0,1.0,94,0.02,,,0.12,meteohub,2013-02-14 19:51:00,
2013-02-14 14:56:00,61.2,59.4,29.94,ENE,67,0.0,1.0,94,0.03,,,0.13,meteohub,2013-02-14 19:56:00,
2013-02-14 15:01:00,61.3,59.5,29.95,ENE,67,0.0,1.0,94,0.02,,,0.13,meteohub,2013-02-14 20:01:00,
2013-02-14 15:06:00,61.3,59.5,29.95,ENE,67,0.0,2.0,94,0.02,,,0.13,meteohub,2013-02-14 20:06:00,
2013-02-14 15:11:00,61.2,59.2,29.95,ENE,67,0.0,2.0,93,0.03,,,0.14,meteohub,2013-02-14 20:11:00,
2013-02-14 15:16:00,61.3,59.5,29.94,ENE,67,0.0,2.0,94,0.03,,,0.14,meteohub,2013-02-14 20:16:00,
2013-02-14 15:21:00,61.3,59.4,29.94,ENE,67,0.0,1.0,93,0.02,,,0.14,meteohub,2013-02-14 20:21:00,
2013-02-14 15:26:00,61.2,59.2,29.93,ENE,67,0.0,1.0,93,0.02,,,0.14,meteohub,2013-02-14 20:26:00,
2013-02-14 15:31:00,61.0,58.6,29.93,ENE,67,0.0,1.0,92,0.02,,,0.14,meteohub,2013-02-14 20:31:00,
2013-02-14 15:37:00,60.8,58.5,29.94,ENE,67,0.0,0.0,92,0.02,,,0.14,meteohub,2013-02-14 20:37:00,
2013-02-14 15:42:00,60.8,58.5,29.94,ENE,67,0.0,0.0,92,0.02,,,0.14,meteohub,2013-02-14 20:42:00,
2013-02-14 15:47:00,61.0,59.0,29.94,ENE,67,0.0,0.0,93,0.02,,,0.14,meteohub,2013-02-14 20:47:00,
2013-02-14 15:52:00,60.8,58.8,29.94,ENE,67,1.0,1.0,93,0.02,,,0.14,meteohub,2013-02-14 20:52:00,
2013-02-14 15:57:00,60.6,58.6,29.94,ENE,67,0.0,3.0,93,0.02,,,0.15,meteohub,2013-02-14 20:57:00,
2013-02-14 16:02:00,60.6,58.6,29.94,ENE,67,0.0,3.0,93,0.02,,,0.15,meteohub,2013-02-14 21:02:00,
2013-02-14 16:07:00,60.6,58.6,29.95,ENE,67,0.0,3.0,93,0.01,,,0.15,meteohub,2013-02-14 21:07:00,
2013-02-14 16:12:00,60.4,58.5,29.95,NW,317,4.0,4.0,93,0.02,,,0.16,meteohub,2013-02-14 21:12:00,
2013-02-14 16:17:00,60.1,58.1,29.94,NW,324,1.0,6.0,93,0.03,,,0.17,meteohub,2013-02-14 21:17:00,
2013-02-14 16:22:00,60.1,58.1,29.96,NW,324,0.0,6.0,93,0.03,,,0.17,meteohub,2013-02-14 21:22:00,
2013-02-14 16:27:00,59.9,57.9,29.96,NW,324,1.0,6.0,93,0.03,,,0.17,meteohub,2013-02-14 21:27:00,
2013-02-14 16:32:00,59.7,57.7,29.96,NW,324,1.0,3.0,93,0.04,,,0.18,meteohub,2013-02-14 21:32:00,
2013-02-14 16:37:00,59.7,57.9,29.96,NW,324,0.0,4.0,94,0.04,,,0.18,meteohub,2013-02-14 21:37:00,
2013-02-14 16:42:00,59.7,57.9,29.95,NW,324,0.0,4.0,94,0.05,,,0.19,meteohub,2013-02-14 21:42:00,
2013-02-14 16:47:00,59.7,57.9,29.96,NW,324,0.0,4.0,94,0.05,,,0.19,meteohub,2013-02-14 21:47:00,
2013-02-14 16:52:00,59.7,57.9,29.96,NW,324,0.0,2.0,94,0.05,,,0.19,meteohub,2013-02-14 21:52:00,
2013-02-14 16:57:00,59.7,58.3,29.96,NW,324,0.0,2.0,95,0.04,,,0.19,meteohub,2013-02-14 21:57:00,
2013-02-14 17:02:00,59.7,58.3,29.95,NW,324,3.0,3.0,95,0.04,,,0.19,meteohub,2013-02-14 22:02:00,
2013-02-14 17:07:00,59.5,58.1,29.96,NW,324,2.0,3.0,95,0.04,,,0.20,meteohub,2013-02-14 22:07:00,
2013-02-14 17:12:00,59.5,58.1,29.96,NW,324,3.0,5.0,95,0.04,,,0.20,meteohub,2013-02-14 22:12:00,
2013-02-14 17:17:00,59.4,57.9,29.96,NW,324,3.0,5.0,95,0.03,,,0.20,meteohub,2013-02-14 22:17:00,
2013-02-14 17:22:00,59.4,57.6,29.96,NW,324,1.0,5.0,94,0.04,,,0.21,meteohub,2013-02-14 22:22:00,
2013-02-14 17:27:00,59.4,57.9,29.94,NW,324,2.0,4.0,95,0.04,,,0.21,meteohub,2013-02-14 22:27:00,
2013-02-14 17:32:00,59.4,57.9,29.96,NW,324,1.0,4.0,95,0.04,,,0.22,meteohub,2013-02-14 22:32:00,
2013-02-14 17:37:00,59.2,57.7,29.96,NW,324,2.0,5.0,95,0.03,,,0.22,meteohub,2013-02-14 22:37:00,
2013-02-14 17:42:00,59.2,57.7,29.96,NW,324,2.0,5.0,95,0.03,,,0.22,meteohub,2013-02-14 22:42:00,
2013-02-14 17:47:00,59.2,57.7,29.97,NW,324,2.0,5.0,95,0.03,,,0.22,meteohub,2013-02-14 22:47:00,
2013-02-14 17:52:00,59.2,57.7,29.97,NW,324,2.0,4.0,95,0.03,,,0.22,meteohub,2013-02-14 22:52:00,
2013-02-14 17:57:00,59.4,57.9,29.98,NW,315,4.0,4.0,95,0.03,,,0.22,meteohub,2013-02-14 22:57:00,
2013-02-14 18:02:00,59.4,57.9,29.97,NW,323,2.0,8.0,95,0.02,,,0.22,meteohub,2013-02-14 23:02:00,
2013-02-14 18:07:00,59.4,57.9,29.98,WNW,302,6.0,8.0,95,0.02,,,0.22,meteohub,2013-02-14 23:07:00,
2013-02-14 18:12:00,59.2,57.7,29.98,NW,315,2.0,8.0,95,0.02,,,0.22,meteohub,2013-02-14 23:12:00,
2013-02-14 18:17:00,59.4,57.9,29.99,NW,325,4.0,9.0,95,0.02,,,0.22,meteohub,2013-02-14 23:17:00,
2013-02-14 18:22:00,59.4,57.9,29.99,NW,322,1.0,9.0,95,0.01,,,0.22,meteohub,2013-02-14 23:22:00,
2013-02-14 18:27:00,59.4,57.9,29.99,NW,321,3.0,7.0,95,0.01,,,0.22,meteohub,2013-02-14 23:27:00,
2013-02-14 18:32:00,59.2,57.4,29.99,NW,320,3.0,8.0,94,0.00,,,0.22,meteohub,2013-02-14 23:32:00,
2013-02-14 18:37:00,59.2,57.4,29.98,NW,308,6.0,9.0,94,0.00,,,0.22,meteohub,2013-02-14 23:37:00,
2013-02-14 18:42:00,59.0,57.0,29.98,NW,318,3.0,9.0,93,0.00,,,0.22,meteohub,2013-02-14 23:42:00,
2013-02-14 18:47:00,58.8,57.0,29.98,NW,318,1.0,9.0,94,0.00,,,0.22,meteohub,2013-02-14 23:47:00,
2013-02-14 18:52:00,58.8,57.0,29.99,NW,313,0.0,9.0,94,0.01,,,0.23,meteohub,2013-02-14 23:52:00,
2013-02-14 18:57:00,58.8,57.0,29.99,NW,314,2.0,8.0,94,0.01,,,0.23,meteohub,2013-02-14 23:57:00,
2013-02-14 19:02:00,58.8,57.0,29.99,NW,313,0.0,6.0,94,0.01,,,0.23,meteohub,2013-02-15 00:02:00,
2013-02-14 19:07:00,58.8,57.0,29.97,NW,313,0.0,5.0,94,0.01,,,0.23,meteohub,2013-02-15 00:07:00,
2013-02-14 19:12:00,58.6,56.8,29.97,NW,314,1.0,5.0,94,0.01,,,0.23,meteohub,2013-02-15 00:12:00,
2013-02-14 19:17:00,58.6,56.8,29.96,NW,314,2.0,4.0,94,0.01,,,0.23,meteohub,2013-02-15 00:17:00,
2013-02-14 19:22:00,58.6,56.8,29.96,NW,314,2.0,4.0,94,0.01,,,0.23,meteohub,2013-02-15 00:22:00,
2013-02-14 19:27:00,58.6,57.2,29.96,NW,314,2.0,4.0,95,0.01,,,0.23,meteohub,2013-02-15 00:27:00,
2013-02-14 19:32:00,58.6,57.2,29.98,NW,314,1.0,4.0,95,0.01,,,0.23,meteohub,2013-02-15 00:32:00,
2013-02-14 19:37:00,58.6,57.2,29.98,NW,314,3.0,4.0,95,0.01,,,0.23,meteohub,2013-02-15 00:37:00,
2013-02-14 19:42:00,58.6,57.2,29.98,NW,314,0.0,3.0,95,0.01,,,0.23,meteohub,2013-02-15 00:42:00,
2013-02-14 19:47:00,58.5,57.0,29.99,NW,314,0.0,3.0,95,0.01,,,0.23,meteohub,2013-02-15 00:47:00,
2013-02-14 19:52:00,58.5,57.0,29.99,NW,314,0.0,3.0,95,0.00,,,0.23,meteohub,2013-02-15 00:52:00,
2013-02-14 19:57:00,58.5,57.0,30.00,NW,314,2.0,2.0,95,0.00,,,0.23,meteohub,2013-02-15 00:57:00,
2013-02-14 20:02:00,58.5,57.0,29.98,NW,314,3.0,3.0,95,0.00,,,0.23,meteohub,2013-02-15 01:02:00,
2013-02-14 20:07:00,58.5,57.0,29.98,NW,314,1.0,3.0,95,0.00,,,0.23,meteohub,2013-02-15 01:07:00,
2013-02-14 20:12:00,58.5,57.0,29.99,NW,314,2.0,3.0,95,0.00,,,0.23,meteohub,2013-02-15 01:12:00,
2013-02-14 20:17:00,58.5,57.0,29.99,NW,314,0.0,3.0,95,0.00,,,0.23,meteohub,2013-02-15 01:17:00,
2013-02-14 20:22:00,58.5,57.0,29.99,NW,314,2.0,3.0,95,0.00,,,0.23,meteohub,2013-02-15 01:22:00,
2013-02-14 20:27:00,58.5,57.0,29.99,NW,314,0.0,3.0,95,0.00,,,0.23,meteohub,2013-02-15 01:27:00,
2013-02-14 20:32:00,58.5,57.0,29.98,NW,314,2.0,3.0,95,0.01,,,0.24,meteohub,2013-02-15 01:32:00,
2013-02-14 20:37:00,58.5,57.0,29.96,NW,314,3.0,4.0,95,0.01,,,0.24,meteohub,2013-02-15 01:37:00,
2013-02-14 20:42:00,58.5,57.0,29.96,NW,314,2.0,4.0,95,0.01,,,0.24,meteohub,2013-02-15 01:42:00,
2013-02-14 20:47:00,58.5,57.0,29.97,NW,314,1.0,4.0,95,0.01,,,0.24,meteohub,2013-02-15 01:47:00,
2013-02-14 20:52:00,58.5,57.4,29.97,NW,314,3.0,4.0,96,0.01,,,0.24,meteohub,2013-02-15 01:52:00,
2013-02-14 20:57:00,58.5,57.0,29.97,NW,314,1.0,4.0,95,0.01,,,0.24,meteohub,2013-02-15 01:57:00,
2013-02-14 21:02:00,58.5,57.0,29.97,NW,314,1.0,3.0,95,0.01,,,0.24,meteohub,2013-02-15 02:02:00,
2013-02-14 21:07:00,58.5,57.4,29.98,NW,314,1.0,3.0,96,0.01,,,0.24,meteohub,2013-02-15 02:07:00,
2013-02-14 21:12:00,58.5,57.4,29.98,NW,314,0.0,2.0,96,0.02,,,0.25,meteohub,2013-02-15 02:12:00,
2013-02-14 21:17:00,58.5,57.4,29.99,NW,314,0.0,2.0,96,0.02,,,0.25,meteohub,2013-02-15 02:17:00,
2013-02-14 21:22:00,58.5,57.4,29.99,NW,314,1.0,1.0,96,0.02,,,0.25,meteohub,2013-02-15 02:22:00,
2013-02-14 21:27:00,58.6,57.6,30.00,NW,314,1.0,2.0,96,0.01,,,0.25,meteohub,2013-02-15 02:27:00,
2013-02-14 21:32:00,58.6,57.6,29.99,NW,314,1.0,3.0,96,0.01,,,0.25,meteohub,2013-02-15 02:32:00,
2013-02-14 21:38:00,58.5,57.4,30.00,NW,314,2.0,3.0,96,0.01,,,0.25,meteohub,2013-02-15 02:38:00,
2013-02-14 21:43:00,58.6,57.6,30.01,NW,314,1.0,3.0,96,0.01,,,0.25,meteohub,2013-02-15 02:43:00,
2013-02-14 21:48:00,58.5,57.4,30.02,NW,314,3.0,5.0,96,0.01,,,0.25,meteohub,2013-02-15 02:48:00,
2013-02-14 21:53:00,58.5,57.4,30.02,NW,309,4.0,5.0,96,0.01,,,0.25,meteohub,2013-02-15 02:53:00,
2013-02-14 21:58:00,58.5,57.4,30.02,NW,309,2.0,6.0,96,0.01,,,0.25,meteohub,2013-02-15 02:58:00,
2013-02-14 22:03:00,58.5,57.4,30.01,NW,309,1.0,6.0,96,0.01,,,0.25,meteohub,2013-02-15 03:03:00,
2013-02-14 22:08:00,58.5,57.4,30.01,NW,309,1.0,5.0,96,0.00,,,0.25,meteohub,2013-02-15 03:08:00,
2013-02-14 22:13:00,58.5,57.4,30.00,NW,309,0.0,5.0,96,0.00,,,0.25,meteohub,2013-02-15 03:13:00,
2013-02-14 22:18:00,58.5,57.4,30.00,NW,309,0.0,5.0,96,0.00,,,0.25,meteohub,2013-02-15 03:18:00,
2013-02-14 22:23:00,58.5,57.4,29.99,NW,309,1.0,5.0,96,0.01,,,0.26,meteohub,2013-02-15 03:23:00,
2013-02-14 22:29:00,58.5,57.4,29.99,NW,309,0.0,2.0,96,0.01,,,0.26,meteohub,2013-02-15 03:29:00,
2013-02-14 22:34:00,58.5,57.4,29.98,NW,309,0.0,2.0,96,0.01,,,0.26,meteohub,2013-02-15 03:34:00,
2013-02-14 22:39:00,58.3,57.2,29.98,NW,309,0.0,2.0,96,0.01,,,0.26,meteohub,2013-02-15 03:39:00,
2013-02-14 22:44:00,58.3,57.2,29.97,NW,309,2.0,2.0,96,0.01,,,0.26,meteohub,2013-02-15 03:44:00,
2013-02-14 22:49:00,58.5,57.4,29.96,NW,309,2.0,2.0,96,0.01,,,0.26,meteohub,2013-02-15 03:49:00,
2013-02-14 22:54:00,58.5,57.4,29.97,NW,309,1.0,2.0,96,0.01,,,0.26,meteohub,2013-02-15 03:54:00,
2013-02-14 22:59:00,58.5,57.4,29.98,NW,309,0.0,2.0,96,0.01,,,0.26,meteohub,2013-02-15 03:59:00,
2013-02-14 23:04:00,58.3,57.2,29.99,NW,309,1.0,2.0,96,0.01,,,0.26,meteohub,2013-02-15 04:04:00,
2013-02-14 23:09:00,58.5,57.4,29.99,NW,309,0.0,2.0,96,0.01,,,0.26,meteohub,2013-02-15 04:09:00,
2013-02-14 23:14:00,58.5,57.4,29.99,NW,309,1.0,2.0,96,0.01,,,0.26,meteohub,2013-02-15 04:14:00,
2013-02-14 23:19:00,58.5,57.4,29.99,NW,309,2.0,3.0,96,0.00,,,0.26,meteohub,2013-02-15 04:19:00,
2013-02-14 23:24:00,58.5,57.4,29.99,NW,309,3.0,4.0,96,0.00,,,0.26,meteohub,2013-02-15 04:24:00,
2013-02-14 23:29:00,58.5,57.4,29.99,NW,309,1.0,4.0,96,0.00,,,0.26,meteohub,2013-02-15 04:29:00,
2013-02-14 23:34:00,58.5,57.4,29.98,NW,309,0.0,4.0,96,0.00,,,0.26,meteohub,2013-02-15 04:34:00,
2013-02-14 23:39:00,58.5,57.4,29.98,NW,309,0.0,4.0,96,0.00,,,0.26,meteohub,2013-02-15 04:39:00,
2013-02-14 23:45:00,58.5,57.4,29.97,NW,309,1.0,4.0,96,0.00,,,0.26,meteohub,2013-02-15 04:45:00,
2013-02-14 23:50:00,58.5,57.4,29.96,NW,309,4.0,4.0,96,0.00,,,0.26,meteohub,2013-02-15 04:50:00,
2013-02-14 23:55:00,58.3,57.2,29.95,NW,309,0.0,3.0,96,0.00,,,0.26,meteohub,2013-02-15 04:55:00,